ATLAS 5 CENTAUR DEB, 44675

Orbit data source: Space-Track

ATLAS 5 CENTAUR DEB, 44675 is space debris in HEO originally from a launch on Wed, 17 Oct 2018 UTC launched from the Air Force Eastern Test Range (AFETR). Debris objects in space refer to the collection of defunct objects orbiting the Earth. Examples of debris include non-operational satellites, rocket bodies, and fragments generated from explosions, collisions, or faulty payload assembly.

Loading next visibility...
Identifier
44675, 2018-079AM
Orbit
HEO
Country
Flag of USUS
Related business
Flag of USUnited Launch Alliance/Lockheed Martin (US)
Manufacturer
ULA Decatur
Mission
Spacecraft
Bus & Motor
Unknown
Mass
Unknown
Launch date (UTC)
2018-10-17 (7 years ago)
Launch vehicle
Unknown
Launch site
Air Force Eastern Test Range (AFETR)
Object type
Payload
Rocket body
Debris
Shape & HBR
Unknown shape, 1.1 m
Radar Cross Section
RCS unknown

Expand to show TLE details & history
Last TLE update: 7 hours ago

TLE from 7 hours ago
0 ATLAS 5 CENTAUR DEB
1 44675U 18079AM  25304.25407606 -.00000040  00000-0  00000-0 0  9990
2 44675  13.1769  56.9185 4663738 269.6028  38.9616  1.80470413 42826
Epoch: 2025-10-31T06:05Z
TLE epoch observation values (Epoch: 2025-10-31T06:05:52.171Z)
Latitude
-0.00001°
Longitude
-74.40992°
Altitude
15,985.126 km
Speed
4.654 km/s
True Right ascension
03h 47m 26s
True Declination
0° 00' 00"
Sunlit
Object was in daylight at epoch
Visualization orbit readout
Latitude
Unknown
Longitude
Unknown
Altitude
Unknown
Speed
Unknown
Apparent Right ascension
Unknown
Apparent Declination
Unknown
Sunlit
N/A
Visualization observer readout
Local Sidereal Time
09:15:16
Azimuth
Unknown
Elevation
Unknown
Doppler factor
Unknown
Orbital elements
Apogee altitude
35,412.036 km
Perigee altitude
8,829.671 km
Semi-major axis
28,498.99 km
Eccentricity
0.46637
Inclination
13.1769°
RAAN
56.9185°
Arg. of periapsis
269.6028°
True anomaly
90.5724°
Mean anomaly
38.9616°
Eccentric anomaly
62.70835°
Mean motion
0.45113 °/min
Orbital period
798 mins
BSTAR
0
Loading maneuver chart data...
Computing Atmospheric mass density...

Documentation

Showing up to 5 results
|